JBU62 KBOS-CYYZ

Flight info

Callsign JBU62
Flight time 1h 19m
Altitude 36000
Route HYLND7 HYLND DCT CAM Q822 GONZZ DCT WOZEE LINNG3
Aircraft A21N/M-SDE2E3FGHIRWXY/LB1

Departure

Time 2026-05-04 22:55
Airport Boston Logan International Airport (KBOS)

Arrival

Time 2026-05-05 00:14
Airport Toronto Pearson International Airport (CYYZ)
Time Latitude Longitude Altitude Speed Heading
2026-05-04 22:25 42.36642 -71.01377 26 ft 0 kts 245°
2026-05-04 22:41 42.36647 -71.01363 26 ft 3 kts 241°
2026-05-04 22:41 42.36655 -71.01342 27 ft 3 kts 254°
2026-05-04 22:41 42.36656 -71.01319 28 ft 2 kts 274°
2026-05-04 22:42 42.36650 -71.01297 28 ft 2 kts 300°
2026-05-04 22:42 42.36639 -71.01282 29 ft 2 kts 336°
2026-05-04 22:42 42.36625 -71.01279 29 ft 0 kts 25°
2026-05-04 22:45 42.36629 -71.01273 29 ft 3 kts 46°
2026-05-04 22:45 42.36746 -71.01140 30 ft 15 kts
2026-05-04 22:45 42.36836 -71.01205 27 ft 16 kts 316°
2026-05-04 22:46 42.36885 -71.01218 27 ft 6 kts 24°
2026-05-04 22:46 42.36928 -71.01173 28 ft 10 kts 40°
2026-05-04 22:46 42.36995 -71.01108 27 ft 14 kts 30°
2026-05-04 22:46 42.37105 -71.01031 27 ft 21 kts 25°
2026-05-04 22:47 42.37206 -71.00966 27 ft 14 kts 26°
2026-05-04 22:47 42.37310 -71.00902 26 ft 19 kts 20°
2026-05-04 22:47 42.37431 -71.00842 28 ft 18 kts 20°
2026-05-04 22:47 42.37543 -71.00787 27 ft 16 kts 19°
2026-05-04 22:48 42.37646 -71.00738 29 ft 15 kts 20°
2026-05-04 22:48 42.37733 -71.00695 32 ft 12 kts 20°
2026-05-04 22:48 42.37810 -71.00657 32 ft 12 kts 25°
2026-05-04 22:48 42.37837 -71.00579 31 ft 0 kts 105°
2026-05-04 22:50 42.37831 -71.00554 31 ft 5 kts 109°
2026-05-04 22:50 42.37811 -71.00496 29 ft 9 kts 130°
2026-05-04 22:50 42.37760 -71.00488 29 ft 7 kts 198°
2026-05-04 22:50 42.37759 -71.00488 29 ft 0 kts 198°
2026-05-04 22:54 42.37635 -71.00547 30 ft 51 kts 200°
2026-05-04 22:54 42.37067 -71.00822 25 ft 123 kts 200°
2026-05-04 22:55 42.36123 -71.01269 254 ft 158 kts 201°
2026-05-04 22:55 42.34968 -71.01679 631 ft 189 kts 185°
2026-05-04 22:55 42.33591 -71.01200 934 ft 228 kts 146°
2026-05-04 22:55 42.32533 -70.99432 1578 ft 254 kts 128°
2026-05-04 22:56 42.31572 -70.97343 2184 ft 266 kts 120°
2026-05-04 22:56 42.31216 -70.94870 2990 ft 278 kts 89°
2026-05-04 22:56 42.31517 -70.92233 3594 ft 288 kts 79°
2026-05-04 22:56 42.31958 -70.89610 3960 ft 290 kts 78°
2026-05-04 22:57 42.32410 -70.86933 4573 ft 294 kts 77°
2026-05-04 22:57 42.32849 -70.84219 5458 ft 296 kts 77°
2026-05-04 22:57 42.33278 -70.81486 6323 ft 300 kts 77°
2026-05-04 22:57 42.33736 -70.78715 7129 ft 301 kts 71°
2026-05-04 22:58 42.34525 -70.76115 7981 ft 298 kts 57°
2026-05-04 22:58 42.35771 -70.73929 8800 ft 290 kts 35°
2026-05-04 22:58 42.37462 -70.72660 9632 ft 277 kts
2026-05-04 22:58 42.39344 -70.72557 10267 ft 273 kts 343°
2026-05-04 22:59 42.41068 -70.73680 10550 ft 283 kts 317°
2026-05-04 22:59 42.42524 -70.75603 10851 ft 301 kts 310°
2026-05-04 22:59 42.43986 -70.77776 11134 ft 320 kts 310°
2026-05-04 22:59 42.45523 -70.80064 11444 ft 336 kts 310°
2026-05-04 23:00 42.47136 -70.82430 11962 ft 346 kts 310°
2026-05-04 23:00 42.48789 -70.84836 12582 ft 351 kts 310°
2026-05-04 23:00 42.50469 -70.87271 13238 ft 356 kts 310°
2026-05-04 23:00 42.52177 -70.89741 13798 ft 363 kts 310°
2026-05-04 23:01 42.53918 -70.92263 14379 ft 367 kts 310°
2026-05-04 23:01 42.55641 -70.94761 15055 ft 368 kts 310°
2026-05-04 23:01 42.57395 -70.97305 15756 ft 369 kts 310°
2026-05-04 23:01 42.59154 -70.99860 16425 ft 371 kts 310°
2026-05-04 23:02 42.60921 -71.02429 17056 ft 373 kts 310°
2026-05-04 23:02 42.62703 -71.05022 17695 ft 376 kts 310°
2026-05-04 23:02 42.64491 -71.07626 18311 ft 378 kts 310°
2026-05-04 23:02 42.66285 -71.10243 18841 ft 380 kts 310°
2026-05-04 23:03 42.68095 -71.12885 19348 ft 383 kts 310°
2026-05-04 23:03 42.69896 -71.15514 19832 ft 386 kts 310°
2026-05-04 23:03 42.71730 -71.18196 20338 ft 388 kts 311°
2026-05-04 23:03 42.73572 -71.20892 20842 ft 390 kts 311°
2026-05-04 23:04 42.75380 -71.23657 21307 ft 392 kts 307°
2026-05-04 23:04 42.76928 -71.26719 21809 ft 394 kts 298°
2026-05-04 23:04 42.78080 -71.30106 22268 ft 396 kts 290°
2026-05-04 23:04 42.78810 -71.33737 22717 ft 399 kts 283°
2026-05-04 23:05 42.79336 -71.37472 23168 ft 402 kts 281°
2026-05-04 23:05 42.79768 -71.41251 23562 ft 405 kts 279°
2026-05-04 23:05 42.80158 -71.45048 23955 ft 407 kts 279°
2026-05-04 23:05 42.80542 -71.48879 24358 ft 408 kts 279°
2026-05-04 23:06 42.80933 -71.52719 24750 ft 409 kts 280°
2026-05-04 23:06 42.81334 -71.56560 25123 ft 410 kts 280°
2026-05-04 23:06 42.81746 -71.60416 25493 ft 412 kts 280°
2026-05-04 23:06 42.82160 -71.64244 25856 ft 413 kts 280°
2026-05-04 23:07 42.82582 -71.68116 26198 ft 414 kts 281°
2026-05-04 23:07 42.83006 -71.72003 26587 ft 414 kts 281°
2026-05-04 23:07 42.83426 -71.75870 27096 ft 411 kts 281°
2026-05-04 23:07 42.83842 -71.79716 27597 ft 409 kts 281°
2026-05-04 23:08 42.84254 -71.83548 28061 ft 406 kts 281°
2026-05-04 23:08 42.84663 -71.87358 28527 ft 404 kts 281°
2026-05-04 23:08 42.85062 -71.91090 28951 ft 402 kts 281°
2026-05-04 23:08 42.85465 -71.94869 29283 ft 403 kts 281°
2026-05-04 23:09 42.85868 -71.98656 29646 ft 403 kts 281°
2026-05-04 23:09 42.86267 -72.02428 30030 ft 401 kts 282°
2026-05-04 23:09 42.86663 -72.06180 30352 ft 400 kts 282°
2026-05-04 23:09 42.87057 -72.09930 30623 ft 399 kts 282°
2026-05-04 23:10 42.87451 -72.13681 30908 ft 399 kts 282°
2026-05-04 23:10 42.87843 -72.17423 31182 ft 399 kts 282°
2026-05-04 23:10 42.88234 -72.21172 31450 ft 398 kts 282°
2026-05-04 23:10 42.88622 -72.24909 31713 ft 398 kts 282°
2026-05-04 23:11 42.89010 -72.28651 31952 ft 397 kts 282°
2026-05-04 23:11 42.89390 -72.32331 32174 ft 397 kts 282°
2026-05-04 23:11 42.89774 -72.36070 32387 ft 397 kts 282°
2026-05-04 23:11 42.90156 -72.39798 32616 ft 397 kts 283°
2026-05-04 23:12 42.90537 -72.43531 32882 ft 396 kts 283°
2026-05-04 23:12 42.90916 -72.47258 33104 ft 395 kts 283°
2026-05-04 23:12 42.91293 -72.50975 33311 ft 395 kts 283°
2026-05-04 23:12 42.91670 -72.54695 33524 ft 394 kts 283°
2026-05-04 23:13 42.92043 -72.58396 33738 ft 394 kts 283°
2026-05-04 23:13 42.92410 -72.62047 33908 ft 393 kts 282°
2026-05-04 23:13 42.92780 -72.65744 34087 ft 392 kts 282°
2026-05-04 23:13 42.93149 -72.69440 34211 ft 393 kts 282°
2026-05-04 23:14 42.93517 -72.73140 34317 ft 394 kts 282°
2026-05-04 23:14 42.93886 -72.76854 34433 ft 395 kts 282°
2026-05-04 23:14 42.94252 -72.80564 34585 ft 395 kts 282°
2026-05-04 23:14 42.94618 -72.84277 34698 ft 395 kts 282°
2026-05-04 23:15 42.94983 -72.87997 34800 ft 395 kts 282°
2026-05-04 23:15 42.95344 -72.91684 34885 ft 396 kts 282°
2026-05-04 23:15 42.96072 -72.99159 35118 ft 396 kts 281°
2026-05-04 23:16 42.96434 -73.02894 35226 ft 397 kts 281°
2026-05-04 23:16 42.96674 -73.05379 35274 ft 397 kts 281°
2026-05-04 23:16 42.97394 -73.12861 35374 ft 399 kts 281°
2026-05-04 23:17 42.97755 -73.16630 35475 ft 400 kts 281°
2026-05-04 23:17 42.98114 -73.20404 35570 ft 401 kts 281°
2026-05-04 23:17 42.98589 -73.25412 35676 ft 402 kts 281°
2026-05-04 23:17 42.98948 -73.29212 35674 ft 404 kts 281°
2026-05-04 23:18 42.99421 -73.35587 35793 ft 407 kts 276°
2026-05-04 23:18 42.99679 -73.43355 35793 ft 408 kts 276°
2026-05-04 23:19 42.99865 -73.51054 35793 ft 407 kts 275°
2026-05-04 23:19 43.00038 -73.58808 35790 ft 407 kts 275°
2026-05-04 23:20 43.00213 -73.66547 35784 ft 407 kts 275°
2026-05-04 23:20 43.00387 -73.74269 35781 ft 406 kts 275°
2026-05-04 23:21 43.00554 -73.81933 35780 ft 405 kts 275°
2026-05-04 23:21 43.00718 -73.89643 35780 ft 406 kts 275°
2026-05-04 23:22 43.00876 -73.97350 35781 ft 405 kts 275°
2026-05-04 23:22 43.01029 -74.05058 35783 ft 405 kts 275°
2026-05-04 23:23 43.01175 -74.12695 35781 ft 405 kts 275°
2026-05-04 23:23 43.01317 -74.20401 35781 ft 405 kts 275°
2026-05-04 23:24 43.01501 -74.28090 35778 ft 404 kts 276°
2026-05-04 23:24 43.01840 -74.35760 35778 ft 404 kts 277°
2026-05-04 23:25 43.02209 -74.43372 35781 ft 403 kts 276°
2026-05-04 23:25 43.02563 -74.51025 35777 ft 403 kts 276°
2026-05-04 23:26 43.02900 -74.58671 35777 ft 403 kts 276°
2026-05-04 23:26 43.03228 -74.66328 35776 ft 403 kts 276°
2026-05-04 23:27 43.03549 -74.73968 35309 ft 400 kts 276°
2026-05-04 23:27 43.03705 -74.77749 34770 ft 396 kts 276°
2026-05-04 23:27 43.03859 -74.81498 34216 ft 394 kts 277°
2026-05-04 23:28 43.04010 -74.85189 33617 ft 392 kts 277°
2026-05-04 23:28 43.04162 -74.88909 32859 ft 393 kts 277°
2026-05-04 23:28 43.04315 -74.92640 32151 ft 393 kts 276°
2026-05-04 23:28 43.04468 -74.96398 31835 ft 398 kts 276°
2026-05-04 23:29 43.04774 -75.04022 31776 ft 403 kts 276°
2026-05-04 23:29 43.05072 -75.11673 31760 ft 403 kts 276°
2026-05-04 23:30 43.05364 -75.19339 31768 ft 404 kts 276°
2026-05-04 23:30 43.05650 -75.26975 31763 ft 404 kts 276°
2026-05-04 23:31 43.05906 -75.34666 31761 ft 405 kts 275°
2026-05-04 23:31 43.06121 -75.42365 31760 ft 405 kts 275°
2026-05-04 23:32 43.06327 -75.50063 31757 ft 405 kts 275°
2026-05-04 23:32 43.06531 -75.57751 31759 ft 405 kts 275°
2026-05-04 23:33 43.06733 -75.65445 31754 ft 404 kts 275°
2026-05-04 23:33 43.06929 -75.73100 31754 ft 404 kts 275°
2026-05-04 23:34 43.07122 -75.80810 31746 ft 404 kts 275°
2026-05-04 23:34 43.07308 -75.88436 31743 ft 403 kts 275°
2026-05-04 23:35 43.07490 -75.96120 31730 ft 403 kts 274°
2026-05-04 23:35 43.07666 -76.03806 31730 ft 403 kts 274°
2026-05-04 23:36 43.07836 -76.11446 31730 ft 403 kts 274°
2026-05-04 23:36 43.08003 -76.19118 31729 ft 403 kts 274°
2026-05-04 23:37 43.08163 -76.26749 31729 ft 403 kts 274°
2026-05-04 23:37 43.08318 -76.34415 31730 ft 403 kts 274°
2026-05-04 23:38 43.08469 -76.42097 31730 ft 403 kts 274°
2026-05-04 23:38 43.08614 -76.49776 31727 ft 403 kts 274°
2026-05-04 23:39 43.08754 -76.57402 31723 ft 403 kts 274°
2026-05-04 23:39 43.08889 -76.65070 31722 ft 403 kts 274°
2026-05-04 23:40 43.08645 -76.72748 31719 ft 404 kts 268°
2026-05-04 23:40 43.08150 -76.80419 31719 ft 405 kts 268°
2026-05-04 23:41 43.07633 -76.88081 31722 ft 405 kts 268°
2026-05-04 23:41 43.07109 -76.95706 31721 ft 405 kts 267°
2026-05-04 23:42 43.06575 -77.03396 31719 ft 405 kts 267°
2026-05-04 23:42 43.06037 -77.11063 31718 ft 405 kts 267°
2026-05-04 23:43 43.05495 -77.18721 31065 ft 403 kts 267°
2026-05-04 23:43 43.05223 -77.22531 30360 ft 403 kts 266°
2026-05-04 23:43 43.04950 -77.26347 29578 ft 404 kts 266°
2026-05-04 23:44 43.04674 -77.30185 28687 ft 405 kts 266°
2026-05-04 23:44 43.04396 -77.34025 27825 ft 406 kts 266°
2026-05-04 23:44 43.04119 -77.37828 26979 ft 407 kts 265°
2026-05-04 23:44 43.03838 -77.41682 26168 ft 407 kts 265°
2026-05-04 23:45 43.03556 -77.45517 25502 ft 403 kts 265°
2026-05-04 23:45 43.03275 -77.49327 24855 ft 400 kts 265°
2026-05-04 23:45 43.02999 -77.53043 24260 ft 395 kts 265°
2026-05-04 23:45 43.02722 -77.56766 23660 ft 391 kts 265°
2026-05-04 23:46 43.02446 -77.60448 23053 ft 387 kts 265°
2026-05-04 23:46 43.02173 -77.64091 22377 ft 383 kts 265°
2026-05-04 23:46 43.01902 -77.67697 21680 ft 380 kts 265°
2026-05-04 23:46 43.01631 -77.71279 20977 ft 377 kts 264°
2026-05-04 23:47 43.01361 -77.74830 20311 ft 374 kts 264°
2026-05-04 23:47 43.01093 -77.78344 19654 ft 371 kts 264°
2026-05-04 23:47 43.00826 -77.81830 19003 ft 367 kts 264°
2026-05-04 23:47 43.00560 -77.85294 18374 ft 365 kts 264°
2026-05-04 23:48 43.00294 -77.88737 17711 ft 362 kts 264°
2026-05-04 23:48 43.00033 -77.92096 17179 ft 358 kts 264°
2026-05-04 23:48 42.99767 -77.95516 17007 ft 358 kts 264°
2026-05-04 23:48 42.99506 -77.98853 16993 ft 358 kts 264°
2026-05-04 23:49 42.99240 -78.02240 17000 ft 358 kts 264°
2026-05-04 23:49 42.98973 -78.05624 17001 ft 358 kts 264°
2026-05-04 23:49 42.98705 -78.09020 16991 ft 358 kts 264°
2026-05-04 23:49 42.98437 -78.12402 17007 ft 358 kts 264°
2026-05-04 23:50 42.98167 -78.15782 16996 ft 358 kts 264°
2026-05-04 23:50 42.97897 -78.19160 16995 ft 358 kts 264°
2026-05-04 23:50 42.97625 -78.22556 16993 ft 358 kts 264°
2026-05-04 23:50 42.97356 -78.25894 17008 ft 358 kts 264°
2026-05-04 23:51 42.97082 -78.29280 16994 ft 358 kts 264°
2026-05-04 23:51 42.96806 -78.32676 16990 ft 358 kts 263°
2026-05-04 23:51 42.96531 -78.36061 16988 ft 358 kts 263°
2026-05-04 23:51 42.96257 -78.39406 16984 ft 358 kts 263°
2026-05-04 23:52 42.95980 -78.42785 16989 ft 358 kts 263°
2026-05-04 23:52 42.95701 -78.46167 17001 ft 358 kts 263°
2026-05-04 23:52 42.95422 -78.49547 16995 ft 358 kts 263°
2026-05-04 23:52 42.95142 -78.52925 17001 ft 358 kts 263°
2026-05-04 23:53 42.94861 -78.56294 16988 ft 358 kts 263°
2026-05-04 23:53 42.94578 -78.59689 16994 ft 358 kts 263°
2026-05-04 23:53 42.94294 -78.63065 17003 ft 358 kts 263°
2026-05-04 23:53 42.94010 -78.66447 16992 ft 358 kts 264°
2026-05-04 23:54 42.93879 -78.69841 17004 ft 358 kts 271°
2026-05-04 23:54 42.94232 -78.73208 16992 ft 360 kts 283°
2026-05-04 23:54 42.95136 -78.76349 16940 ft 362 kts 295°
2026-05-04 23:54 42.96529 -78.79216 16335 ft 363 kts 304°
2026-05-04 23:55 42.98118 -78.81875 15663 ft 361 kts 306°
2026-05-04 23:55 42.99731 -78.84492 15017 ft 357 kts 306°
2026-05-04 23:55 43.02885 -78.89650 13797 ft 349 kts 305°
2026-05-04 23:56 43.04428 -78.92198 13174 ft 346 kts 305°
2026-05-04 23:56 43.05951 -78.94724 12458 ft 344 kts 304°
2026-05-04 23:56 43.07453 -78.97221 11731 ft 343 kts 304°
2026-05-04 23:56 43.08962 -78.99735 11188 ft 340 kts 304°
2026-05-04 23:57 43.10467 -79.02245 11014 ft 341 kts 304°
2026-05-04 23:57 43.11978 -79.04769 10970 ft 342 kts 304°
2026-05-04 23:57 43.13488 -79.07292 10963 ft 342 kts 304°
2026-05-04 23:57 43.14995 -79.09811 10962 ft 342 kts 304°
2026-05-04 23:58 43.16500 -79.12327 11016 ft 342 kts 304°
2026-05-04 23:58 43.18006 -79.14848 11020 ft 341 kts 304°
2026-05-04 23:58 43.19512 -79.17369 11020 ft 342 kts 304°
2026-05-04 23:58 43.20998 -79.19862 11025 ft 342 kts 304°
2026-05-04 23:59 43.22506 -79.22393 11026 ft 342 kts 304°
2026-05-04 23:59 43.24014 -79.24926 11023 ft 342 kts 304°
2026-05-04 23:59 43.25523 -79.27463 11022 ft 342 kts 304°
2026-05-04 23:59 43.27027 -79.29994 11020 ft 342 kts 304°
2026-05-05 00:00 43.28506 -79.32481 10795 ft 338 kts 304°
2026-05-05 00:00 43.29018 -79.33320 10577 ft 338 kts 306°
2026-05-05 00:00 43.32140 -79.36659 9524 ft 346 kts 327°
2026-05-05 00:00 43.34267 -79.38074 9257 ft 333 kts 329°
2026-05-05 00:01 43.36329 -79.39380 9020 ft 319 kts 329°
2026-05-05 00:01 43.38308 -79.40631 8788 ft 306 kts 329°
2026-05-05 00:01 43.40205 -79.41836 8563 ft 294 kts 328°
2026-05-05 00:01 43.42014 -79.42994 8283 ft 285 kts 328°
2026-05-05 00:02 43.43789 -79.44135 8039 ft 277 kts 328°
2026-05-05 00:02 43.45511 -79.45242 7991 ft 271 kts 328°
2026-05-05 00:02 43.47225 -79.46352 7994 ft 272 kts 328°
2026-05-05 00:02 43.48941 -79.47464 7989 ft 273 kts 328°
2026-05-05 00:03 43.50656 -79.48574 7635 ft 273 kts 328°
2026-05-05 00:03 43.52380 -79.49687 7205 ft 272 kts 328°
2026-05-05 00:03 43.54090 -79.50790 6792 ft 270 kts 328°
2026-05-05 00:03 43.55773 -79.51873 6404 ft 269 kts 328°
2026-05-05 00:04 43.57510 -79.52831 6002 ft 272 kts 340°
2026-05-05 00:04 43.59423 -79.53000 5554 ft 283 kts
2026-05-05 00:04 43.61259 -79.51952 5040 ft 293 kts 35°
2026-05-05 00:04 43.62770 -79.50049 4604 ft 294 kts 45°
2026-05-05 00:05 43.63698 -79.48687 4333 ft 294 kts 46°
2026-05-05 00:05 43.65535 -79.45933 4004 ft 292 kts 47°
2026-05-05 00:05 43.66921 -79.43871 3988 ft 293 kts 46°
2026-05-05 00:05 43.68319 -79.41804 3978 ft 295 kts 46°
2026-05-05 00:06 43.69255 -79.40425 4003 ft 298 kts 46°
2026-05-05 00:06 43.70677 -79.38338 3984 ft 298 kts 46°
2026-05-05 00:06 43.72099 -79.36254 3988 ft 297 kts 46°
2026-05-05 00:06 43.73518 -79.34173 4001 ft 297 kts 46°
2026-05-05 00:07 43.75017 -79.32204 3873 ft 296 kts 32°
2026-05-05 00:07 43.76861 -79.31144 3555 ft 279 kts
2026-05-05 00:07 43.78668 -79.31323 3404 ft 245 kts 332°
2026-05-05 00:07 43.80158 -79.32242 3154 ft 227 kts 321°
2026-05-05 00:08 43.81508 -79.33272 2996 ft 218 kts 320°
2026-05-05 00:08 43.82768 -79.34363 2978 ft 210 kts 305°
2026-05-05 00:08 43.83361 -79.35989 2984 ft 179 kts 262°
2026-05-05 00:08 43.82968 -79.37527 3001 ft 170 kts 234°
2026-05-05 00:09 43.82230 -79.38811 2987 ft 171 kts 227°
2026-05-05 00:09 43.81418 -79.40022 2995 ft 171 kts 226°
2026-05-05 00:09 43.80602 -79.41209 2986 ft 171 kts 227°
2026-05-05 00:09 43.79789 -79.42392 2999 ft 171 kts 227°
2026-05-05 00:10 43.78969 -79.43588 2988 ft 173 kts 226°
2026-05-05 00:10 43.78134 -79.44809 2999 ft 175 kts 226°
2026-05-05 00:10 43.77303 -79.46027 2991 ft 174 kts 226°
2026-05-05 00:10 43.76494 -79.47210 2977 ft 161 kts 225°
2026-05-05 00:11 43.75775 -79.48259 2834 ft 140 kts 225°
2026-05-05 00:11 43.75127 -79.49201 2636 ft 133 kts 225°
2026-05-05 00:11 43.74484 -79.50140 2434 ft 135 kts 224°
2026-05-05 00:11 43.73839 -79.51078 2255 ft 133 kts 225°
2026-05-05 00:12 43.73210 -79.52005 2072 ft 132 kts 223°
2026-05-05 00:12 43.72576 -79.52930 1957 ft 131 kts 225°
2026-05-05 00:12 43.71927 -79.53841 1830 ft 140 kts 223°
2026-05-05 00:12 43.71260 -79.54817 1559 ft 137 kts 227°
2026-05-05 00:13 43.70644 -79.55758 1284 ft 128 kts 227°
2026-05-05 00:13 43.70020 -79.56660 1160 ft 132 kts 225°
2026-05-05 00:13 43.69377 -79.57610 1016 ft 137 kts 225°
2026-05-05 00:13 43.68723 -79.58544 834 ft 133 kts 224°
2026-05-05 00:14 43.68093 -79.59463 653 ft 129 kts 225°
2026-05-05 00:14 43.67515 -79.60299 582 ft 110 kts 224°
2026-05-05 00:14 43.67094 -79.60905 573 ft 61 kts 226°
2026-05-05 00:14 43.66890 -79.61202 579 ft 36 kts 226°
2026-05-05 00:15 43.66723 -79.61447 572 ft 35 kts 225°
2026-05-05 00:15 43.66573 -79.61706 571 ft 34 kts 246°
2026-05-05 00:15 43.66545 -79.61907 564 ft 12 kts 298°
2026-05-05 00:15 43.66579 -79.61954 564 ft 0 kts 313°
2026-05-05 00:16 43.66582 -79.61957 565 ft 3 kts 319°
2026-05-05 00:17 43.66594 -79.61955 568 ft 2 kts 37°
2026-05-05 00:17 43.66621 -79.61922 571 ft 8 kts 44°
2026-05-05 00:17 43.66677 -79.61841 564 ft 14 kts 46°
2026-05-05 00:17 43.66742 -79.61747 564 ft 13 kts 46°
2026-05-05 00:18 43.66798 -79.61666 570 ft 11 kts 46°
2026-05-05 00:18 43.66858 -79.61578 567 ft 16 kts 47°
2026-05-05 00:18 43.66937 -79.61462 572 ft 16 kts 46°
2026-05-05 00:18 43.67017 -79.61346 571 ft 18 kts 46°
2026-05-05 00:19 43.67107 -79.61216 573 ft 19 kts 46°
2026-05-05 00:19 43.67204 -79.61169 570 ft 17 kts 322°
2026-05-05 00:19 43.67296 -79.61289 567 ft 19 kts 316°
2026-05-05 00:19 43.67394 -79.61414 564 ft 18 kts 317°
2026-05-05 00:20 43.67482 -79.61529 564 ft 17 kts 316°
2026-05-05 00:20 43.67565 -79.61637 573 ft 15 kts 317°
2026-05-05 00:20 43.67638 -79.61734 572 ft 15 kts 316°
2026-05-05 00:20 43.67719 -79.61841 566 ft 17 kts 316°
2026-05-05 00:21 43.67808 -79.61955 574 ft 18 kts 316°
2026-05-05 00:21 43.67916 -79.62068 566 ft 21 kts 341°
2026-05-05 00:21 43.68031 -79.62179 566 ft 20 kts 316°
2026-05-05 00:21 43.68130 -79.62309 566 ft 19 kts 316°
2026-05-05 00:22 43.68221 -79.62424 571 ft 15 kts 325°
2026-05-05 00:22 43.68287 -79.62368 571 ft 13 kts 74°
2026-05-05 00:22 43.68321 -79.62271 575 ft 11 kts 46°
2026-05-05 00:22 43.68376 -79.62187 567 ft 12 kts 55°
2026-05-05 00:23 43.68382 -79.62153 569 ft 5 kts 103°
2026-05-05 00:23 43.68365 -79.62091 571 ft 7 kts 112°
2026-05-05 00:23 43.68361 -79.62077 571 ft 0 kts 112°